www.pogodaiklimat.ru

Погода и климат >> Архив погоды >> Индия >> Андхра-Прадеш >> Калингапатнам


ПОГОДА в Калингапатнаме

  • Прогноз погоды в Калингапатнаме
  • Монитор погоды в Калингапатнаме

АРХИВ ПОГОДЫ в Калингапатнаме

Время (UTC), дата Ветер
(напр.,м/с)
 
Видим.   Явления Облачность Т
(С)
Тd
(С)
f
(%)
Тe
(С)
Тes
(С)
Комфортность P
(гПа)
Po
(гПа)
Тmin
(С)
Tmax
(С)
R
(мм)
R24
(мм)
S
(см)
09 12.07 ЮЗ 11 10 км 3/3 600 м
[Sc]
+32.0 +24.9 66 +45 +45 опасность
перегрева
1003.7 1003.1
12 12.07 ЮЗ 5 10 км 6/4 600 м
[Sc Ac trans]
+30.0 +26.4 81 +46 +46 опасность
перегрева
1003.7 1003.1 +32.8
15 12.07 ЮЗ 6 4000 м 8/5 600 м
[Sc Ac trans]
+28.6 +25.8 85 +43 +43 опасность
перегрева
1006.0 1005.4
18 12.07 З 4 4000 м 8/5 600 м
[Sc Ac trans]
+28.4 +26.2 88 +43 +43 опасность
перегрева
1006.2 1005.6
21 12.07 ЮЗ 3 4000 м 8/5 600 м
[Sc Ac trans]
+28.0 +26.0 89 +42 +42 опасность
перегрева
1004.5 1003.9
00 13.07 З 2 4000 м 8/5 600 м
[Sc Ac trans]
+27.6 +25.9 90 +41 +41 опасность
перегрева
1005.2 1004.6
03 13.07 Ю 3 10 км 5/4 600 м
[Sc Ci fib]
+30.6 +27.0 81 +48 +53 опасность
перегрева
1006.9 1006.3 +27.2 +32.8
06 13.07 ЮЗ 8 10 км 4/3 600 м
[Sc Ci fib]
+32.0 +26.7 74 +49 +52 опасность
перегрева
1006.0 1005.4
09 13.07 ЮЗ 10 10 км 5/4 600 м
[Sc Ci fib]
+32.0 +27.0 75 +50 +50 опасность
перегрева
1003.6 1003.0
12 13.07 В 4 10 км гроза без осадков 9/6 600 м
[Cb cap Ac As]
+29.0 +25.6 82 +43 +43 опасность
перегрева
1005.1 1004.5 +32.5
15 13.07 штиль 0 4000 м слаб. морось {гроза, дождь} 10/6 600 м
[Cu Sc Ac As]
+26.4 +24.4 89 +37 +37 очень
душно
1005.4 1004.7 0.6
18 13.07 З 2 4000 м 8/6 600 м
[Sc Ac trans]
+26.2 +24.6 91 +37 +37 очень
душно
1005.4 1004.7 0.6
21 13.07 ЮЗ 3 4000 м 9/6 600 м
[Sc Ac trans]
+26.0 +24.6 92 +37 +37 очень
душно
1003.9 1003.2 0.6
00 14.07 штиль 0 10 км 8/5 600 м
[Sc Ac trans]
+26.6 +25.5 94 +39 +39 очень
душно
1003.5 1002.8 0.6
03 14.07 З 2 10 км 8/5 600 м
[Sc Ac trans]
+28.2 +25.4 85 +41 +45 опасность
перегрева
1005.4 1004.8 +25.7 +32.5 0.6
06 14.07 ЮЗ 6 10 км 6/4 600 м
[Sc Ac trans]
+33.6 +25.5 63 +48 +52 опасность
перегрева
1004.2 1003.6
09 14.07 ЮЗ 3 10 км 9/6 600 м
[Sc Ac trans]
+31.0 +26.0 75 +46 +49 опасность
перегрева
1002.4 1001.8
12 14.07 ЮЗ 3 10 км 8/5 600 м
[Sc Ac trans]
+29.8 +26.5 83 +46 +46 опасность
перегрева
1001.8 1001.2 +33.9
15 14.07 ЮЗ 3 4000 м 6/5 600 м
[Sc Ac trans]
+28.0 +25.7 87 +41 +41 опасность
перегрева
1002.8 1002.2
18 14.07 З 3 4000 м 8/5 600 м
[Sc Ac trans]
+27.8 +26.7 94 +43 +43 опасность
перегрева
1002.9 1002.3
21 14.07 Ю 3 4000 м 8/5 600 м
[Sc Ac trans]
+27.4 +26.6 95 +42 +42 опасность
перегрева
1001.4 1000.8
00 15.07 штиль 0 4000 м 6/5 600 м
[Sc Ac trans]
+26.8 +25.7 94 +40 +40 очень
душно
1001.7 1001.1
03 15.07 ЮЗ 3 10 км 5/4 600 м
[Sc Ci fib]
+31.4 +25.5 71 +46 +51 опасность
перегрева
1003.5 1002.9 +26.4 +33.9
06 15.07 Ю 7 10 км 5/3 600 м
[Sc Ac trans Ci fib]
+33.4 +26.5 67 +50 +54 опасность
перегрева
1002.6 1002.0
09 15.07 Ю 6 10 км 8/3 600 м
[Sc Ac trans Ci fib]
+32.0 +26.1 71 +48 +51 опасность
перегрева
1001.0 1000.4
12 15.07 Ю 2 10 км {гроза} 10/6 600 м
[Sc As op]
+28.4 +24.1 78 +40 +40 очень
душно
1002.0 1001.4 +33.7
15 15.07 СЗ 2 4000 м {морось} 9/6 600 м
[Sc Ac trans]
+27.0 +24.7 87 +38 +38 очень
душно
1002.8 1002.1 0.3
18 15.07 Ю 1 4000 м 9/6 600 м
[Sc Ac trans]
+26.8 +25.1 90 +39 +39 очень
душно
1003.3 1002.7 0.3
21 15.07 З 2 4000 м 9/6 600 м
[Sc Ac trans]
+26.4 +25.0 92 +38 +38 очень
душно
1001.7 1001.1 0.3
00 16.07 штиль 0 4000 м 8/5 600 м
[Sc Ac trans]
+26.4 +24.7 90 +37 +37 очень
душно
1002.6 1002.0 0.3
03 16.07 ЮЗ 2 10 км 6/3 600 м
[Sc Ac trans Ci fib]
+30.0 +26.1 80 +45 +51 опасность
перегрева
1003.8 1003.2 +26.0 +33.7 0.3
06 16.07 ЮЗ 5 10 км 4/1 600 м
[Sc Ci fib]
+33.4 +25.9 65 +49 +58 опасность
перегрева
1003.0 1002.4
09 16.07 ЮЗ 6 10 км 4/3 600 м
[Sc Ac trans]
+33.0 +26.3 68 +49 +53 опасность
перегрева
1000.9 1000.3
12 16.07 ЮЗ 3 10 км 5/4 600 м
[Sc Ci fib]
+30.8 +26.9 80 +48 +49 опасность
перегрева
1000.5 999.9 +34.3
15 16.07 штиль 0 4000 м гроза, ливневой дождь 10/8 600 м
[Cb calv As op]
+28.6 +25.5 83 +42 +42 опасность
перегрева
1002.4 1001.8 1
18 16.07 З 2 4000 м {морось} 8/5 600 м
[Sc Ac trans]
+27.0 +24.7 87 +38 +38 очень
душно
1002.7 1002.0 1
21 16.07 штиль 0 4000 м 9/6 600 м
[Sc Ac trans]
+26.8 +25.4 92 +39 +39 очень
душно
1001.2 1000.5 1
00 17.07 З 2 4000 м 8/5 600 м
[Sc Ac trans]
+26.6 +25.7 95 +39 +39 очень
душно
1001.5 1000.8 1
03 17.07 СЗ 2 10 км 6/4 600 м
[Sc Ac trans]
+32.2 +26.1 70 +48 +53 опасность
перегрева
1001.9 1001.3 +26.2 +34.3 1
06 17.07 С 1 10 км 8/3 600 м
[Sc Ac trans Ci fib]
+36.2 +24.7 52 +49 +61 опасность
перегрева
1001.4 1000.8
09 17.07 ЮЗ 3 10 км 3/1 600 м
[Sc Ci fib]
+34.0 +27.1 67 +52 +63 опасность
перегрева
999.3 998.7
12 17.07 штиль 0 4000 м в посл. час гроза {дождь} 9/3 600 м
[Sc Ac trans Ci sp]
+25.8 +25.5 98 +38 +38 очень
душно
1000.2 999.6 +37.0 11
15 17.07 ЮЗ 2 4000 м 9/3 600 м
[Cu Sc Ac trans Ci sp]
+26.4 +25.0 92 +38 +38 очень
душно
1002.7 1002.0 11
18 17.07 штиль 0 4000 м {гроза, дождь} 9/4 600 м
[Cu Sc Ac trans Ci sp]
+25.0 +25.0 100 +36 +36 очень
душно
1002.2 1001.5 37
21 17.07 штиль 0 4000 м 8/3 600 м
[Sc Ac trans Ci fib]
+25.4 +25.1 98 +36 +36 очень
душно
1000.4 999.7 37
00 18.07 штиль 0 4000 м 8/3 600 м
[Sc Ac trans Ci fib]
+26.0 +25.1 95 +37 +37 очень
душно
1000.1 999.4 37
03 18.07 штиль 0 10 км 8/3 600 м
[Sc Ac trans Ci sp]
+29.0 +26.2 85 +44 +50 опасность
перегрева
1001.0 1000.4 +23.5 +37.0 37
06 18.07 Ю 2 10 км 9/4 600 м
[Sc Ac trans Cs]
+32.4 +27.2 74 +51 +59 опасность
перегрева
1001.3 1000.7
09 18.07 Ю 2 10 км 10/6 600 м
[Sc As op]
+30.4 +26.5 80 +47 +48 опасность
перегрева
999.5 998.9 +32.7
12 18.07 Ю 2 4000 м 10/8 600 м
[Sc Ac trans]
+28.6 +26.6 89 +44 +44 опасность
перегрева
999.5 998.9 +32.7
15 18.07 штиль 0 4000 м 10/6 600 м
[Sc As op]
+28.0 +26.6 92 +43 +43 опасность
перегрева
1000.5 999.9
18 18.07 ЮЗ 1 4000 м 8/5 600 м
[Sc Ac trans]
+27.4 +26.3 94 +42 +42 опасность
перегрева
1001.3 1000.7
21 18.07 З 2 4000 м 8/5 600 м
[Sc Ac trans]
+27.0 +26.2 95 +41 +41 опасность
перегрева
999.6 999.0
00 19.07 штиль 0 4000 м 10/6 600 м
[Sc As op]
+26.6 +25.7 95 +39 +39 очень
душно
999.8 999.2
03 19.07 штиль 0 4000 м слаб. морось {дождь} 9/6 600 м
[Sc Ac trans]
+28.4 +26.7 91 +44 +47 опасность
перегрева
1001.2 1000.6 +26.2 +32.7 2
06 19.07 штиль 0 4000 м в посл. час дождь 10/6 600 м
[Cu Sc As op]
+28.0 +26.3 91 +43 +45 опасность
перегрева
1001.6 1001.0 0.6

 

Местоположение метеостанции Калингапатнам (Андхра-Прадеш, Индия): широта 18.33 долгота 84.13 высота над уровнем моря 7 м.

В архиве по умолчанию представлена погода в Калингапатнаме за последнюю неделю. Архивные данные за месяц целиком и за предыдущие месяцы, начиная с января 2011 года, Вы можете получить, выбрав интересующий диапазон дат из раскрывающегося списка и нажав кнопку "Ввод!".


*Определитесь, кто Вы:
робот инопланетянин человек

Внимание! Время в таблицах - всемирное. Для получения местного времени необходимо прибавить поправку, которая равна 5.5 ч.

Смотрите также архив погоды в соседних городах и на ближайших метеорологических станциях:

Погода в Висакхапатнам Уолт (Андхра-Прадеш, Индия) (112 км)
Погода в Висакхапатнаме (Андхра-Прадеш, Индия) (117 км)
Погода в Гопалпере (Орисса, Индия) (131 км)
Погода в Корапуте (Орисса, Индия) (158 км)
Погода в Туни (Андхра-Прадеш, Индия) (200 км)
Погода в Бхаванипатне (Орисса, Индия) (203 км)
Погода в Титилагаре (Орисса, Индия) (236 км)
Погода в Джагдалпуре (Чхаттисгарх, Индия) (236 км)
Погода в Пхулбани (Орисса, Индия) (240 км)
Погода в Пури (Орисса, Индия) (241 км)

Пояснения к столбцам:

Ветер - указаны скорость ветра в м/с - средняя за 10 мин, порывы в срок и между сроками (в фигурных скобках) и направление, откуда дует ветер: С - северный, СВ - северо-восточный, В - восточный, ЮВ - юго-восточный, Ю - южный, ЮЗ - юго-западный, З - западный, СЗ - северо-западный.
Видимость - горизонтальная дальность видимости в метрах или километрах. При видимости от 1 до 10 км при отсутствии осадков обычно наблюдается дымка, при ухудшении видимости до 1 км и менее - туман. В сухую погоду видимость может ухудшаться дымом, пылью или мглою.
Явления - указаны атмосферные явления, наблюдавшиеся в срок или в последний час перед сроком; фигурными скобками обозначены явления, наблюдавшиеся между сроками (за 1-3 часа до срока); квадратными скобками обозначены град или гололедные отложения с указанием их диаметра в мм.
Облачность - указаны через наклонную черту общая и нижняя облачность в баллах и высота нижней границы облаков в метрах; квадратными скобками обозначены формы облаков: Ci - перистые, Cs - перисто-слоистые, Cc - перисто-кучевые, Ac - высококучевые, As - высокослоистые, Sc - слоисто-кучевые, Ns - слоисто-дождевые, Cu - кучевые, Cb - кучево-дождевые. Подробнее классификацию облаков см. в Атласе облаков (PDF).
T - Температура воздуха - температура, измеренная на высоте 2 м над землей.
Td - Температура точки росы - температура, при понижении до которой содержащийся в воздухе водяной пар достигнет насыщения.
f - Относительная влажность воздуха - влажноcть воздуха, измеренная на высоте 2 м над землей.
Te - Эффективная температура - температура, которую ощущает одетый по сезону человек в тени. Характеристика душности погоды. При расчете учитывается влияние влажности воздуха и скорости ветра на теплоощущения человека.
Tes - Эффективная температура на солнце - температура, которую ощущает человек, с поправкой на солнечный нагрев. Характеристика знойности погоды. Зависит от высоты солнца над горизонтом, облачности и скорости ветра. Ночью, в пасмурную погоду, а также при ветре 12 м/с и более поправка равна нулю.
P - Атмосферное давление - приведенное к уровню моря атмосферное давление.
Po - Атмосферное давление - измеренное на уровне метеостанции атмосферное давление.
Tmin - Минимальная температура - минимум температуры воздуха на высоте 2 м над землей.
Tmax - Максимальная температура - максимум температуры воздуха на высоте 2 м над землей.
R - Количество осадков - Количество выпавших осадков за период времени, мм. При наведении курсора мыши на число - период времени, за который выпало указанное количество осадков.
R24 - Количество осадков - Количество выпавших осадков за 24 часа, мм.
S - Снежный покров - Высота снежного покрова, см. При наведении курсора мыши на число - состояние снежного покрова и степень покрытия местности в баллах.